Regional Weather Roundup
Issued by NWS

Home | Current Version | Previous Version | Text Only | Print | Product List | Glossary On
Versions: 1 2 3 4 5 6 7 8 9 10 11 12 13 14 15 16 17 18 19 20 21 22 23 24 25 26 27 28 29 30 31 32 33 34 35 36 37 38 39 40 41 42 43 44 45 46 47 48 49 50
000
ASUS46 KSTO 220815
RWRCA

NORTHERN AND CENTRAL CA REGIONAL WEATHER ROUNDUP
NATIONAL WEATHER SERVICE SACRAMENTO CA
100 AM PDT TUE AUG 22 2017

NOTE: FAIR INDICATES FEW OR NO CLOUDS BELOW 12,000 FEET WITH NO
SIGNIFICANT WEATHER AND/OR OBSTRUCTIONS TO VISIBILITY.

CAZ001-003-220900-
NORTHWEST AREA

CITY           SKY/WX    TMP DP  RH WIND       PRES   REMARKS
CRESCENT CITY  CLOUDY    56  55  97 CALM      30.07F
UKIAH          CLEAR     63  57  81 CALM      30.00R
$$

CAZ006-505>513-220900-
BAY AREA

CITY           SKY/WX    TMP DP  RH WIND       PRES   REMARKS
SANTA ROSA     CLEAR     57  54  89 SE3       30.01S
SAN RAFAEL     N/A       62  MM  MM MISG
NAPA           CLEAR     58  55  90 MISG      30.02R
CONCORD        CLEAR     63  56  78 SW6       30.00F
OAKLAND CITY   N/A      MM  MM  MM MISG
OAKLAND        PTCLDY    60  57  89 NW3       30.02F
SAN FRAN CITY  N/A       61  MM  82 MISG
SAN FRAN ARPT  PTCLDY    61  55  81 W8        30.01F
LIVERMORE      CLEAR     60  55  83 NW5       30.01S
HAYWARD        CLEAR     61  53  75 NW5       30.01F
REDWOOD CITY   N/A       65  MM  80 MISG
MOFFETT ARPT   CLOUDY    65  59  81 N8        30.02F
SAN JOSE ARPT  MOCLDY    64  58  80 NW7       30.02S
$$
CAZ034-037-514>518-220900-
CENTRAL COAST

CITY           SKY/WX    TMP DP  RH WIND       PRES   REMARKS
WATSONVILLE    CLEAR     57  55  93 NW5       30.03R
SALINAS        CLEAR     61  56  83 W5        30.01S
MONTEREY       CLEAR     59  55  87 CALM      30.02S
SAN LUIS OBISP CLEAR     62  56  80 CALM      30.00S
SANTA MARIA    CLEAR     59  57  93 S3        30.01R
$$
CAZ015-016-220900-
NORTHERN SACRAMENTO VALLEY

CITY           SKY/WX    TMP DP  RH WIND       PRES   REMARKS
REDDING        CLEAR     74  61  63 W3        29.96R
RED BLUFF      CLEAR     74  63  68 CALM      29.97R
OROVILLE       MOCLDY    75  61  61 S5        29.97R
$$
CAZ016>018-220900-
SOUTHERN SACRAMENTO VALLEY

CITY           SKY/WX    TMP DP  RH WIND       PRES   REMARKS
AUBURN         CLEAR     70  70 100 CALM      30.01R
LINCOLN        FAIR      68  55  64 SE8       29.95R
MARYSVILLE     PTCLDY    69  59  70 E6        29.96R
SAC INTL ARPT  PTCLDY    65  58  78 S8        29.93F
MATHER AIRPORT NOT AVBL
DOWNTOWN SAC   N/A       65  MM  MM MISG
SAC EXEC ARPT  CLEAR     64  57  78 SW6       29.94F
VACAVILLE      CLEAR     68  55  63 SW9       29.95S
TRAVIS AFB     CLEAR     62  55  79 SW25      29.93F
$$
CAZ019>021-220900-
SAN JOAQUIN VALLEY

CITY           SKY/WX    TMP DP  RH WIND       PRES   REMARKS
STOCKTON       CLEAR     64  58  80 NW6       29.95F
MODESTO        CLEAR     67  58  72 N8        29.95S
MERCED         CLEAR     68  56  65 N10       29.94S
LEMOORE        CLEAR     72  59  63 NW6       29.96R
FRESNO         CLEAR     72  60  66 NW9       29.95S
HANFORD        CLEAR     74  62  66 NW8       29.95F
PORTERVILLE      N/A     73  63  70 SW3       29.96S
BAKERSFIELD    CLEAR     78  62  57 N6        29.95S
$$
CAZ011-012-071-220900-
NORTHERN MOUNTAINS

CITY           SKY/WX    TMP DP  RH WIND       PRES   REMARKS
YREKA          CLEAR     67  44  43 CALM      30.06R HAZE
MOUNT SHASTA   CLEAR     63  55  75 CALM      30.12S
ALTURAS        CLEAR     69  52  54 NW6       30.15S
$$
CAZ011-012-071-220900-
SIERRA NEVADA MTNS

CITY           SKY/WX    TMP DP  RH WIND       PRES   REMARKS
BLUE CANYON    PTCLDY    67  45  45 CALM      30.24S
TRUCKEE        MOCLDY    52  50  93 CALM      30.28F
TAHOE VLY ARPT PTCLDY    50  46  86 CALM      30.30S
MAMMOTH LAKES  FAIR      50  38  63 N3        30.36S
$$




USA.gov is the U.S. government's official web portal to all federal, state and local government web resources and services.